Weather History for Sierra Vista, AZ

Change the Weather History Date:

Wednesday, August 8, 2012

  Actual Average Record
Temperature  
Mean Temperature 84 °F -  
Max Temperature 95 °F 86 °F 98 °F (2003)
Min Temperature 71 °F 68 °F 60 °F (1993)
Cooling Degree Days 19    
Growing Degree Days 34 (Base 50)    
Moisture  
Dew Point 58 °F    
Average Humidity 48    
Maximum Humidity 69    
Minimum Humidity 26    
Precipitation  
Precipitation 0.01 in - - ()
Sea Level Pressure  
Sea Level Pressure 29.97 in    
Wind  
Wind Speed 8 mph (WSW)    
Max Wind Speed 22 mph    
Max Gust Speed 30 mph    
Visibility 10 miles    
Events Rain , Thunderstorm    
Averages and records for this station are not official NWS values.
T = Trace of Precipitation, MM = Missing Value Source: NWS Daily Summary

Daily Weather History Graph

Daily Weather History Graph

Search for Another Location

Airport:

Trip Planner

Search our weather history database for the weather conditions in past years. The results will help you decide how hot, cold, wet, or windy it might be!

Date:

Astronomy

Aug. 08, 2012 Rise Set
Actual Time 5:42 AM MST 7:11 PM MST
Civil Twilight 5:16 AM MST 7:36 PM MST
Nautical Twilight 4:45 AM MST 8:08 PM MST
Astronomical Twilight 4:12 AM MST 8:40 PM MST
Moon 10:59 PM MST (8/8) 12:00 PM MST (8/8)
Length of Visible Light 14h 20m
Length of Day
13h 28m
Waning Gibbous, 59% of the Moon is Illuminated
Aug 8
Waning Gibbous
Aug 9
Last Quarter
Aug 17
New
Aug 24
First Quarter
Aug 31
Full

Hourly Weather History & Observations

Time (MST) Temp. Heat Index Dew Point Humidity Pressure Visibility Wind Dir Wind Speed Gust Speed Precip Events Conditions
12:55 AM 80.6 °F 80.5 °F 55.4 °F 42% 29.94 in 10.0 mi SSW 8.1 mph - N/A Rain Light Rain Showers
1:55 AM 73.4 °F - 62.6 °F 69% 29.96 in 10.0 mi Variable 1.2 mph - N/A Rain Light Rain Showers
2:55 AM 73.4 °F - 60.8 °F 65% 29.94 in 10.0 mi West 12.7 mph - N/A Rain Light Rain Showers
3:55 AM 73.4 °F - 59.0 °F 61% 29.91 in 10.0 mi West 13.8 mph - N/A   Mostly Cloudy
4:55 AM 75.2 °F - 57.2 °F 53% 29.92 in 10.0 mi West 5.8 mph - N/A   Scattered Clouds
5:55 AM 73.4 °F - 57.2 °F 57% 29.94 in 10.0 mi West 6.9 mph - N/A   Mostly Cloudy
6:55 AM 75.2 °F - 60.8 °F 61% 29.96 in 10.0 mi South 4.6 mph - N/A   Partly Cloudy
7:55 AM 80.6 °F 81.5 °F 60.8 °F 51% 29.97 in 10.0 mi Calm Calm - N/A   Scattered Clouds
8:55 AM 82.4 °F 82.0 °F 57.2 °F 42% 29.97 in 10.0 mi Calm Calm - N/A   Mostly Cloudy
9:55 AM 84.2 °F 83.5 °F 57.2 °F 40% 30.00 in 10.0 mi Variable 3.5 mph - N/A   Mostly Cloudy
10:55 AM 87.8 °F 86.5 °F 57.2 °F 35% 29.94 in 10.0 mi Calm Calm - N/A   Scattered Clouds
11:55 AM 87.8 °F 87.1 °F 59.0 °F 38% 29.96 in 10.0 mi Calm Calm - N/A   Mostly Cloudy
12:55 PM 89.6 °F 88.1 °F 57.2 °F 33% 29.94 in 10.0 mi WNW 3.5 mph - N/A   Scattered Clouds
1:55 PM 93.2 °F 91.3 °F 55.4 °F 28% 29.92 in 10.0 mi Variable 3.5 mph - N/A   Scattered Clouds
2:55 PM 93.2 °F 91.3 °F 55.4 °F 28% 29.88 in 10.0 mi Variable 6.9 mph - N/A   Scattered Clouds
3:55 PM 95.0 °F 93.0 °F 55.4 °F 26% 29.86 in 10.0 mi WNW 8.1 mph - N/A Thunderstorm Mostly Cloudy
4:52 PM 80.6 °F 81.1 °F 59.0 °F 48% 30.08 in 10.0 mi South 21.9 mph - 0.00 in Rain , Thunderstorm Light Thunderstorms and Rain
4:56 PM 82.9 °F 82.4 °F 57.0 °F 41% 29.88 in 10.0 mi South 21.9 mph 27.6 mph 0.00 in Rain , Thunderstorm Light Thunderstorms and Rain
5:46 PM 82.4 °F 81.7 °F 55.4 °F 39% 30.11 in 10.0 mi NNW 17.3 mph 29.9 mph 0.00 in Thunderstorm Thunderstorm
5:56 PM 80.1 °F 80.2 °F 55.9 °F 43% 29.92 in 10.0 mi NNW 19.6 mph - 0.00 in Rain , Thunderstorm Light Thunderstorms and Rain
6:25 PM 78.8 °F - 57.2 °F 47% 30.11 in 10.0 mi West 13.8 mph - 0.00 in Thunderstorm Thunderstorm
6:56 PM 75.2 °F - 60.8 °F 61% 30.16 in 10.0 mi NE 9.2 mph - N/A Thunderstorm Thunderstorm
7:37 PM 75.2 °F - 60.8 °F 61% 30.15 in 10.0 mi West 9.2 mph - N/A   Partly Cloudy
7:56 PM 77.0 °F - 59.0 °F 54% 29.96 in 10.0 mi SSW 5.8 mph - N/A   Mostly Cloudy
8:56 PM 78.1 °F - 57.9 °F 50% 29.99 in 10.0 mi South 9.2 mph - 0.00 in Rain Light Rain
9:56 PM 78.1 °F - 55.9 °F 46% 29.98 in 10.0 mi SW 9.2 mph - 0.00 in   Mostly Cloudy
10:55 PM 73.4 °F - 55.4 °F 53% 29.96 in 10.0 mi West 11.5 mph - N/A   Overcast
11:55 PM 71.6 °F - 60.8 °F 69% 29.98 in 10.0 mi Variable 4.6 mph - N/A   Mostly Cloudy